Temp
71 77 81 81 82 83 83 83 83 83 83 83 83 83 83 83 83 83 83 83 83 83 84 83 84 84 84 83 83 83 83 83 83 83 83 83 82 82 82 83 84 92 82
76 78 80 82 83 83 83 83 83 83 83 83 83 83 83 83 83 83 83 83 83 83 84 84 84 84 83 83 83 83 83 83 83 83 83 83 82 82 82 83 86 87 82
76 83 86 81 82 83 83 83 83 83 83 83 83 83 83 84 83 84 84 84 84 84 84 84 84 84 84 84 83 83 83 83 83 83 84 94 91 83 83 82 83 82 82
88 85 90 81 82 83 83 83 83 84 83 83 83 83 83 84 84 84 84 84 84 84 84 84 84 84 84 84 84 83 83 83 83 83 86 93 92 83 83 82 82 82 82
81 89 88 81 82 83 83 83 83 83 83 83 83 83 84 84 84 84 84 84 84 84 84 84 84 84 84 84 84 83 83 83 83 86 89 87 94 84 83 81 82 82 83
91 92 85 83 83 83 83 83 83 84 83 84 84 84 84 84 84 84 84 84 85 84 84 84 84 85 85 85 85 84 84 83 83 92 91 89 91 83 82 83 83 82 82
93 94 91 83 83 83 83 83 84 84 84 83 84 84 84 84 84 84 84 85 85 85 85 85 85 85 85 85 85 84 84 84 90 91 93 88 89 82 82 82 82 81 81
94 95 92 84 83 83 84 84 83 84 83 83 84 84 84 84 84 84 85 85 85 85 85 85 85 85 84 84 84 83 84 85 91 90 91 92 82 82 83 83 82 82 81
95 96 93 92 88 84 84 84 84 84 84 84 84 84 84 84 85 85 85 85 85 86 85 85 85 85 85 84 83 83 82 82 92 91 92 91 80 82 82 82 82 82 81
94 96 93 93 92 91 90 84 84 84 84 84 84 84 84 85 85 85 84 84 85 85 85 85 85 85 85 85 84 83 82 82 94 92 94 90 81 81 83 82 82 81 81
91 94 95 95 92 91 91 89 85 84 84 84 85 84 85 94 94 93 85 84 85 85 85 85 85 85 85 85 85 84 83 97 97 95 93 79 81 82 83 82 82 81 81
86 93 95 94 93 92 95 90 90 92 95 94 94 91 96 93 93 93 88 84 85 84 83 83 84 85 87 100 97 86 93 95 97 96 92 79 80 83 84 82 82 81 81
90 93 94 93 91 92 92 93 93 94 95 94 90 91 93 94 94 99 95 94 94 86 96 92 92 93 95 98 98 98 97 97 98 97 85 80 81 82 84 83 82 82 81
90 92 94 92 89 91 93 93 95 94 95 95 94 90 91 93 94 94 96 95 93 98 94 95 92 93 95 94 92 96 97 100 99 98 86 80 81 82 83 83 83 82 81
90 91 92 91 88 88 88 93 94 93 94 96 94 92 94 95 92 94 93 96 94 97 96 92 93 92 90 84 92 95 96 94 96 100 94 81 81 82 82 83 83 82 82
90 90 92 90 88 88 88 88 90 92 94 94 95 94 90 93 92 95 94 96 96 97 97 90 91 89 93 92 88 93 95 96 93 95 97 90 82 82 83 83 82 82 82
91 91 91 90 90 87 87 88 89 93 95 94 95 92 90 90 90 89 90 92 96 93 90 90 92 94 91 95 90 94 97 92 94 93 98 97 88 82 83 83 83 81 82
92 89 90 93 91 89 88 89 91 93 94 94 95 94 90 89 89 89 89 93 95 90 93 92 92 92 94 92 91 95 96 93 92 93 95 97 97 93 84 83 82 82 82
91 89 88 90 90 89 88 90 90 90 91 94 95 95 91 90 90 90 93 94 92 95 92 93 92 92 91 92 91 96 96 93 90 97 93 94 93 97 96 82 82 82 83
92 90 88 89 88 87 89 88 91 92 92 94 94 94 92 91 90 90 93 91 91 95 93 92 88 92 92 91 93 92 95 92 95 95 94 96 94 94 96 91 90 85 82
92 89 87 86 86 87 88 87 88 89 90 92 93 92 90 90 90 89 92 90 91 90 86 88 89 86 90 91 89 89 90 91 92 95 97 96 93 96 94 94 94 96 87
90 89 86 86 85 86 88 88 90 90 93 93 94 92 91 91 90 90 88 90 89 93 86 86 85 90 91 91 88 89 83 87 91 96 95 94 92 95 93 92 91 90 91
90 88 87 86 86 86 88 89 88 90 90 90 92 92 92 91 91 89 89 90 88 89 90 86 86 85 89 88 86 87 83 84 86 90 89 94 90 93 92 91 91 89 90
91 91 89 87 86 86 86 88 85 87 87 91 92 94 94 91 91 91 89 89 88 92 89 85 89 88 85 86 87 89 86 85 85 82 89 90 91 91 90 93 92 91 89
93 92 90 87 86 87 86 87 87 86 91 93 94 91 89 90 91 93 90 89 88 90 89 87 86 84 88 89 88 87 85 88 86 85 84 85 89 91 91 91 94 94 90
95 93 91 87 85 86 86 85 86 86 88 91 90 91 92 93 93 90 91 89 89 89 88 88 86 85 85 86 90 88 88 86 86 85 84 85 86 89 91 92 91 92 93
MSLP
1016.19 1015.57 1015.44 1015.54 1015.61 1015.77 1015.94 1016.05 1016.19 1016.47 1016.70 1016.88 1017.03 1017.13 1017.26 1017.47 1017.58 1017.65 1017.62 1017.75 1017.86 1017.92 1017.92 1018.05 1018.12 1018.14 1018.22 1018.27 1018.30 1018.31 1018.31 1018.31 1018.28 1018.31 1018.38 1018.45 1018.57 1018.72 1018.65 1018.48 1018.16 1017.92 1018.80
1015.59 1015.73 1015.49 1015.78 1015.94 1016.08 1016.29 1016.36 1016.56 1016.76 1017.02 1017.21 1017.37 1017.47 1017.59 1017.73 1017.85 1017.91 1018.01 1017.99 1017.98 1018.09 1018.13 1018.22 1018.31 1018.38 1018.43 1018.49 1018.53 1018.54 1018.58 1018.60 1018.60 1018.66 1018.63 1018.74 1018.88 1018.92 1018.90 1018.75 1018.16 1018.75 1019.09
1015.68 1015.70 1015.78 1016.02 1016.12 1016.44 1016.60 1016.71 1016.90 1017.14 1017.39 1017.56 1017.69 1017.74 1017.89 1017.99 1018.10 1018.14 1018.20 1018.25 1018.28 1018.24 1018.35 1018.43 1018.46 1018.54 1018.58 1018.63 1018.70 1018.71 1018.76 1018.83 1018.86 1018.90 1018.52 1017.56 1018.37 1019.17 1019.15 1019.10 1019.16 1019.34 1019.41
1014.68 1015.39 1015.52 1016.26 1016.43 1016.59 1016.83 1017.01 1017.26 1017.53 1017.75 1017.89 1018.00 1018.09 1018.23 1018.32 1018.34 1018.42 1018.40 1018.40 1018.48 1018.45 1018.50 1018.49 1018.55 1018.60 1018.75 1018.79 1018.83 1018.87 1018.93 1019.06 1019.09 1019.01 1018.19 1017.86 1018.18 1019.43 1019.39 1019.42 1019.56 1019.68 1019.72
1015.24 1014.99 1015.80 1016.47 1016.68 1016.80 1017.09 1017.34 1017.60 1017.81 1018.04 1018.20 1018.27 1018.39 1018.55 1018.61 1018.64 1018.67 1018.57 1018.65 1018.64 1018.59 1018.55 1018.57 1018.65 1018.69 1018.71 1018.74 1018.82 1018.94 1019.07 1019.21 1019.24 1018.73 1018.28 1018.53 1018.09 1019.57 1019.68 1019.81 1019.89 1019.96 1019.84
1014.45 1014.64 1016.29 1016.54 1016.78 1017.03 1017.34 1017.67 1017.90 1018.11 1018.26 1018.43 1018.52 1018.68 1018.79 1018.86 1018.89 1018.86 1018.81 1018.94 1018.85 1018.78 1018.75 1018.76 1018.78 1018.80 1018.81 1018.84 1018.88 1019.02 1019.20 1019.36 1019.24 1018.47 1018.61 1018.76 1018.41 1019.78 1020.02 1020.15 1020.09 1020.24 1020.37
1013.93 1014.78 1015.97 1016.64 1016.96 1017.28 1017.61 1017.93 1018.15 1018.33 1018.47 1018.64 1018.77 1018.92 1019.00 1019.06 1019.08 1019.07 1019.06 1019.10 1019.01 1018.96 1018.95 1018.91 1018.95 1018.94 1018.92 1018.97 1019.08 1019.13 1019.31 1019.40 1018.73 1018.75 1018.50 1019.19 1019.41 1020.13 1020.35 1020.37 1020.53 1020.72 1020.73
1013.87 1014.65 1015.86 1016.86 1017.20 1017.49 1017.83 1018.18 1018.40 1018.54 1018.67 1018.88 1018.94 1019.02 1019.11 1019.20 1019.24 1019.25 1019.24 1019.20 1019.09 1019.09 1019.12 1019.14 1019.15 1019.15 1019.15 1019.20 1019.29 1019.30 1019.32 1019.23 1018.70 1018.96 1018.84 1018.90 1020.12 1020.37 1020.49 1020.51 1020.63 1020.78 1020.99
1013.89 1014.50 1015.64 1016.44 1017.23 1017.68 1018.04 1018.38 1018.58 1018.70 1018.84 1019.01 1019.02 1019.10 1019.18 1019.26 1019.35 1019.37 1019.41 1019.39 1019.28 1019.27 1019.32 1019.30 1019.31 1019.33 1019.31 1019.41 1019.52 1019.54 1019.60 1019.51 1018.81 1019.06 1019.01 1019.18 1020.46 1020.57 1020.67 1020.79 1020.91 1021.01 1021.15
1013.88 1014.56 1015.36 1016.12 1016.84 1017.24 1017.87 1018.50 1018.67 1018.82 1018.98 1019.04 1019.14 1019.19 1019.22 1019.28 1019.34 1019.41 1019.41 1019.58 1019.49 1019.48 1019.44 1019.37 1019.31 1019.32 1019.36 1019.42 1019.48 1019.58 1019.70 1019.38 1018.77 1019.02 1019.06 1019.68 1020.60 1020.77 1020.83 1021.06 1021.14 1021.20 1021.27
1014.10 1014.68 1015.16 1015.70 1016.59 1017.12 1017.53 1018.25 1018.72 1018.89 1019.00 1019.08 1019.05 1019.23 1019.13 1018.20 1018.47 1018.50 1019.42 1019.61 1019.59 1019.56 1019.47 1019.37 1019.31 1019.28 1019.14 1019.07 1019.32 1019.50 1019.15 1018.21 1018.36 1018.81 1018.92 1020.32 1020.71 1020.79 1020.87 1021.04 1021.20 1021.36 1021.46
1014.32 1014.42 1015.00 1015.52 1016.29 1016.94 1017.08 1017.86 1018.08 1018.12 1018.04 1018.09 1018.19 1018.58 1018.13 1018.51 1018.73 1018.66 1019.27 1019.62 1019.57 1019.62 1019.55 1019.47 1019.40 1018.99 1018.36 1017.59 1018.02 1018.68 1018.04 1018.53 1018.46 1018.78 1019.32 1020.47 1020.80 1020.84 1020.85 1021.07 1021.34 1021.49 1021.64
1014.05 1014.32 1015.01 1015.68 1016.38 1016.78 1016.88 1017.42 1017.51 1017.66 1017.71 1018.09 1018.51 1018.57 1018.47 1018.57 1018.64 1018.17 1018.35 1018.61 1018.72 1019.28 1018.44 1018.73 1018.59 1018.17 1018.35 1017.87 1017.80 1017.82 1018.08 1018.13 1018.10 1018.47 1020.00 1020.60 1020.78 1020.89 1020.96 1021.11 1021.35 1021.48 1021.65
1013.76 1014.27 1014.96 1015.72 1016.53 1016.77 1016.97 1017.26 1017.18 1017.34 1017.56 1017.67 1017.97 1018.70 1018.67 1018.35 1018.43 1018.55 1018.17 1018.57 1018.80 1018.45 1018.69 1018.51 1018.42 1018.81 1018.50 1018.57 1018.63 1018.16 1018.04 1017.90 1017.93 1018.30 1020.04 1020.67 1020.76 1020.82 1020.99 1021.01 1021.22 1021.44 1021.61
1013.67 1014.24 1014.88 1015.71 1016.51 1016.87 1017.19 1017.01 1017.07 1017.34 1017.58 1017.45 1017.92 1018.37 1018.35 1018.26 1018.58 1018.50 1018.57 1018.49 1018.72 1018.52 1018.34 1018.82 1018.85 1018.78 1019.26 1019.43 1019.05 1018.37 1018.06 1018.56 1018.49 1018.13 1018.98 1020.56 1020.80 1020.90 1020.92 1020.99 1021.17 1021.36 1021.59
1013.51 1014.13 1014.86 1015.66 1016.32 1016.79 1017.02 1017.25 1017.35 1017.48 1017.35 1017.63 1017.65 1017.95 1018.63 1018.49 1018.53 1018.27 1018.39 1018.39 1018.39 1018.43 1018.36 1019.31 1019.26 1019.12 1018.89 1018.95 1019.19 1018.63 1018.40 1018.26 1018.92 1018.68 1018.42 1019.91 1020.54 1020.72 1020.75 1020.86 1021.10 1021.25 1021.43
1013.18 1013.92 1014.65 1015.44 1015.97 1016.61 1016.86 1017.23 1017.36 1017.12 1017.25 1017.32 1017.56 1018.16 1018.52 1018.68 1018.63 1018.74 1018.72 1018.59 1018.38 1018.70 1019.14 1019.30 1019.02 1018.64 1018.38 1018.52 1019.02 1018.65 1018.30 1018.88 1018.66 1018.90 1018.48 1018.43 1019.84 1020.36 1020.66 1020.83 1020.94 1021.16 1021.23
1012.82 1013.58 1014.48 1014.95 1015.47 1016.19 1016.50 1016.82 1016.88 1016.84 1017.08 1017.14 1017.29 1017.69 1018.27 1018.58 1018.67 1018.58 1018.89 1018.63 1018.35 1018.92 1018.95 1018.84 1018.93 1018.69 1018.34 1018.89 1018.85 1018.69 1018.37 1018.64 1018.81 1018.79 1018.63 1018.66 1018.73 1019.03 1020.23 1020.76 1020.89 1020.96 1021.04
1012.50 1013.34 1014.15 1014.73 1015.08 1015.68 1016.19 1016.36 1016.65 1016.75 1017.07 1016.90 1017.07 1017.30 1017.78 1018.25 1018.40 1018.56 1018.03 1017.99 1018.54 1018.24 1018.52 1018.84 1018.65 1018.74 1018.64 1018.70 1018.75 1018.48 1018.52 1018.78 1018.96 1018.37 1018.89 1018.88 1019.07 1018.71 1018.82 1020.36 1020.80 1020.93 1021.00
1011.99 1012.98 1013.84 1014.42 1014.87 1015.45 1015.84 1016.31 1016.24 1016.33 1016.66 1016.70 1016.77 1016.90 1017.40 1017.85 1018.06 1018.26 1017.84 1018.42 1018.40 1018.04 1018.29 1018.61 1018.93 1018.89 1018.84 1018.80 1018.45 1018.63 1018.55 1018.93 1018.43 1018.57 1018.56 1018.41 1018.92 1019.00 1018.81 1019.48 1019.87 1020.39 1020.84
1011.28 1012.30 1013.19 1013.86 1014.39 1015.01 1015.31 1015.51 1015.73 1015.79 1016.16 1016.41 1016.48 1016.84 1017.21 1017.51 1017.70 1017.94 1017.75 1018.22 1018.18 1018.31 1018.89 1018.99 1018.95 1019.11 1018.64 1019.07 1018.62 1018.56 1018.81 1018.92 1018.90 1018.73 1018.36 1018.31 1018.96 1018.85 1019.32 1019.48 1019.14 1019.13 1020.22
1010.55 1011.47 1012.48 1013.20 1013.84 1014.45 1014.72 1015.04 1015.19 1015.46 1015.60 1015.81 1015.98 1016.30 1016.76 1016.97 1017.31 1017.52 1017.67 1017.80 1018.04 1017.90 1018.66 1018.96 1019.25 1018.56 1018.73 1018.99 1018.32 1018.03 1018.10 1018.57 1018.50 1018.54 1018.77 1018.93 1019.16 1019.00 1019.42 1019.66 1019.72 1019.89 1019.87
1009.50 1010.56 1011.50 1012.50 1013.18 1013.88 1014.22 1014.85 1015.26 1015.34 1015.54 1015.54 1015.53 1015.77 1016.05 1016.53 1016.78 1017.10 1017.28 1017.57 1017.94 1018.12 1017.83 1018.73 1019.00 1018.97 1018.38 1019.01 1019.17 1018.35 1018.03 1017.32 1018.05 1018.81 1019.25 1019.00 1019.58 1019.28 1019.52 1019.91 1019.99 1020.29 1020.36
1008.35 1009.64 1010.71 1011.74 1012.59 1013.26 1013.83 1014.00 1014.39 1014.44 1014.46 1014.59 1015.00 1015.20 1015.39 1016.08 1016.31 1016.62 1016.99 1017.25 1017.60 1017.30 1017.81 1018.55 1018.69 1018.73 1019.01 1018.51 1018.89 1018.90 1018.98 1018.60 1017.81 1017.83 1018.63 1018.92 1019.33 1019.38 1019.62 1019.58 1019.80 1020.21 1020.43
1007.65 1008.67 1009.75 1010.91 1011.82 1012.45 1013.11 1013.30 1013.81 1014.02 1013.94 1014.13 1014.43 1014.75 1015.43 1015.65 1016.02 1016.14 1016.62 1016.98 1017.35 1017.33 1017.58 1018.00 1018.46 1018.81 1018.71 1018.29 1018.25 1018.50 1018.79 1018.70 1018.76 1018.11 1017.51 1018.38 1019.01 1019.12 1019.39 1019.73 1019.33 1019.30 1020.07
1006.77 1007.91 1008.92 1009.98 1010.88 1011.81 1012.33 1012.92 1013.03 1013.18 1013.36 1013.43 1013.83 1014.10 1014.57 1015.00 1015.37 1015.74 1016.01 1016.48 1016.87 1017.01 1017.34 1017.66 1018.20 1018.52 1018.54 1018.53 1018.23 1018.33 1018.14 1018.13 1018.05 1018.18 1017.96 1018.06 1018.02 1018.43 1019.05 1019.11 1019.39 1019.40 1019.67
Wind_Speed
9 7 12 10 10 12 15 17 16 15 15 14 13 13 13 11 10 10 10 12 11 10 10 11 9 9 9 9 9 10 10 8 8 10 9 10 11 9 9 6 10 15 13
13 9 10 13 14 14 15 15 16 15 14 13 13 13 12 11 10 9 10 10 11 11 10 10 8 7 7 8 8 8 10 8 7 9 10 11 10 9 7 5 12 14 13
12 14 14 13 15 16 15 15 15 15 14 13 12 12 11 10 9 11 10 11 11 10 10 8 7 6 6 6 7 7 9 8 8 7 8 8 12 8 8 10 14 12 13
18 12 16 14 15 16 16 15 14 15 14 12 12 11 10 10 10 9 8 10 11 9 9 8 7 6 5 4 5 6 6 6 7 5 8 9 10 9 9 11 11 11 13
13 15 16 16 16 17 16 14 13 14 13 11 11 10 9 9 9 8 6 10 9 9 8 8 8 7 5 3 4 4 5 6 4 9 5 3 8 10 9 10 13 11 7
19 17 18 18 18 16 15 14 14 13 12 11 10 10 9 9 8 7 7 10 9 7 7 7 7 7 5 4 4 4 7 8 9 5 8 5 8 10 8 8 10 11 11
19 18 18 16 15 15 15 14 13 12 11 11 9 9 9 8 8 6 7 7 7 7 7 6 7 7 6 6 7 6 7 7 2 3 7 6 10 8 8 9 10 9 9
18 19 18 16 14 15 15 14 13 12 11 10 9 8 8 8 7 6 6 6 6 6 6 5 6 6 6 7 8 9 9 2 5 6 5 9 9 9 11 11 10 11 10
18 18 16 17 14 13 14 13 12 11 10 9 8 7 7 7 6 6 5 5 5 5 5 5 4 5 5 6 6 7 8 2 4 6 6 6 9 8 10 9 10 10 10
17 17 16 16 15 13 13 11 11 10 9 8 7 6 5 5 4 6 5 6 5 5 5 4 4 4 3 4 6 7 7 8 7 6 4 9 7 8 10 8 8 10 9
14 17 16 16 14 11 11 11 10 8 7 6 8 6 8 6 5 8 9 4 4 4 3 5 5 4 4 9 7 8 12 5 5 4 4 11 5 6 8 10 8 9 8
17 18 16 15 14 12 10 11 9 8 8 7 6 5 4 4 4 4 5 3 6 3 2 2 1 5 13 5 7 13 6 8 3 3 6 9 3 8 7 10 9 9 8
20 16 17 14 13 12 9 8 6 5 5 5 5 4 3 1 2 2 5 6 6 4 6 8 7 3 5 5 5 6 7 5 4 4 9 6 5 2 6 7 10 9 8
19 18 17 16 13 12 8 8 7 6 5 5 5 5 2 5 3 1 2 3 2 2 1 2 5 4 2 4 8 6 5 2 4 4 9 7 5 3 5 9 10 9 8
19 18 17 16 13 11 9 8 7 6 6 5 5 6 4 3 0 2 3 0 2 1 3 1 3 3 3 4 2 3 4 5 4 2 8 8 6 5 6 7 8 9 9
18 18 17 16 14 13 11 8 6 6 6 5 5 5 5 4 2 1 2 1 1 1 2 4 3 4 1 2 5 5 4 5 5 1 6 9 7 6 5 8 8 9 10
18 18 17 16 16 14 13 10 8 7 7 6 6 6 6 5 4 4 3 4 1 3 3 2 2 0 2 2 4 4 4 4 8 5 2 6 11 9 6 5 8 9 9
18 18 17 15 17 16 13 10 8 8 7 7 6 6 8 7 6 5 2 3 2 3 1 3 3 2 3 2 3 1 2 6 3 5 5 2 2 9 9 6 6 7 7
18 18 17 17 16 16 14 10 10 9 8 7 7 7 8 7 8 6 4 4 2 1 3 0 3 2 3 3 6 1 1 6 6 8 5 2 6 3 6 9 6 5 4
18 17 17 15 16 15 11 10 9 9 9 8 8 8 7 7 8 6 6 2 5 2 2 2 3 2 2 2 4 4 2 4 3 4 5 5 7 6 4 3 8 8 6
19 19 19 18 17 13 12 12 10 10 9 9 8 9 9 8 7 7 7 5 6 3 2 3 4 3 3 1 4 5 5 5 4 3 3 5 4 3 4 4 4 2 8
21 20 19 19 17 16 12 10 10 9 9 9 9 9 10 10 9 8 8 3 4 2 4 3 3 1 1 3 2 3 6 6 5 2 3 4 4 5 6 3 5 4 4
22 22 20 19 18 16 14 10 9 9 8 9 10 10 9 10 9 9 7 7 5 6 4 4 5 3 2 4 3 4 3 2 6 6 5 3 3 3 5 5 5 5 2
23 21 20 20 19 17 17 13 14 12 11 10 11 10 9 11 10 9 8 8 7 5 2 4 4 3 5 5 5 4 4 6 4 6 5 5 5 5 3 3 6 6 5
22 21 20 19 18 17 16 14 13 13 11 10 10 10 10 10 11 10 9 9 8 7 6 4 5 6 5 5 5 5 4 5 4 6 4 7 6 5 5 5 3 4 5
21 20 20 19 19 19 19 20 17 16 13 11 11 10 10 11 10 12 11 10 9 8 7 7 7 8 7 5 4 4 4 4 5 5 5 3 4 7 5 6 5 5 4
Wind_Direction
199 193 177 161 140 131 127 126 128 124 125 125 122 112 106 103 94 83 71 81 79 90 94 94 102 98 100 99 93 90 92 92 96 104 105 113 108 108 112 146 177 106 107
147 165 174 152 143 136 130 126 126 127 127 123 117 113 109 102 100 95 83 77 84 94 93 99 97 105 107 100 95 86 92 103 104 113 122 108 105 110 112 61 63 101 111
139 172 165 150 139 136 130 132 131 129 125 124 123 116 109 107 100 83 81 85 83 81 86 89 98 103 101 101 92 90 88 104 99 113 188 136 109 109 112 93 97 111 112
160 143 148 150 141 138 135 133 129 127 129 127 118 114 109 103 90 85 76 86 86 87 86 86 91 90 90 97 99 96 96 104 109 174 225 84 112 121 122 122 111 107 108
144 154 133 150 148 142 138 133 129 132 134 127 120 113 106 98 92 87 75 79 84 83 83 81 78 81 81 82 121 144 136 114 134 229 75 136 115 106 128 126 129 132 148
162 142 139 148 143 139 135 133 134 138 135 130 120 114 109 100 91 77 60 72 84 87 87 87 88 84 84 93 95 120 151 140 212 79 126 88 74 109 125 112 92 107 119
147 136 148 141 139 138 137 139 141 140 138 128 123 116 109 102 95 83 64 82 87 87 87 87 82 79 76 71 84 95 119 149 163 98 94 93 97 121 114 113 115 119 114
143 146 139 139 144 144 143 143 144 144 140 133 128 120 114 107 99 87 73 83 89 93 92 87 85 82 78 74 91 98 108 171 163 110 101 111 109 136 126 120 118 122 119
151 142 152 154 148 145 141 146 146 145 141 137 134 129 124 118 107 100 89 86 83 89 85 82 84 86 91 94 93 117 123 84 117 92 136 129 124 135 122 114 115 107 101
159 149 156 155 161 162 153 149 150 148 146 144 146 146 144 147 144 133 164 92 83 73 64 63 54 65 123 137 127 123 142 195 88 126 116 97 130 153 127 129 119 116 113
168 163 164 162 161 164 159 155 161 155 159 158 172 161 194 187 146 168 65 72 114 88 60 44 36 43 193 145 147 158 206 72 120 80 116 109 138 159 143 141 136 127 125
177 171 169 170 166 169 173 159 179 167 182 190 184 165 218 73 67 359 103 116 121 110 123 92 38 250 247 105 136 189 212 89 100 96 77 120 160 175 154 154 148 142 136
177 174 171 175 174 177 178 181 181 183 181 178 200 222 95 232 106 195 132 164 158 190 187 190 184 235 50 27 50 52 92 198 108 113 95 138 184 221 165 170 165 162 156
178 178 176 175 182 189 182 196 189 191 197 204 183 189 209 222 157 338 54 93 216 138 150 320 76 20 131 83 359 40 67 32 78 87 120 154 169 181 209 183 170 180 181
181 181 181 177 183 190 200 197 209 207 200 203 191 183 240 251 82 248 110 322 326 169 117 12 4 36 11 333 216 1 41 74 27 92 109 147 173 191 188 216 190 183 188
186 184 183 185 186 193 199 204 209 209 208 217 205 199 209 259 187 221 179 183 211 295 21 78 28 310 42 33 75 293 37 74 47 234 116 133 163 186 182 191 202 204 200
189 185 187 189 189 194 200 197 211 208 216 210 213 196 218 229 193 294 31 296 349 66 320 97 260 41 120 112 119 82 104 15 99 113 178 121 149 168 185 184 190 201 210
191 190 191 193 190 194 199 198 212 211 216 215 210 205 207 221 240 228 170 250 55 144 289 165 342 350 72 96 53 314 72 92 12 127 91 295 36 140 152 161 174 188 201
195 191 194 196 197 195 200 203 208 204 218 212 213 214 194 217 230 251 241 208 222 278 115 249 227 245 95 136 191 167 98 88 239 85 88 191 98 316 109 139 167 180 190
190 194 196 195 199 196 196 206 206 205 211 216 215 218 211 215 227 234 249 267 260 244 115 227 340 78 351 7 327 77 122 146 95 83 130 136 112 174 139 98 175 157 157
197 196 197 198 194 194 198 199 204 207 201 211 220 218 220 226 225 226 259 190 241 266 93 190 194 158 165 21 173 137 131 160 162 139 70 69 113 72 73 112 260 98 142
196 197 197 202 197 199 198 204 205 207 205 211 211 210 221 228 226 233 231 205 220 236 207 180 233 265 69 145 263 182 159 159 159 146 108 106 49 116 118 111 104 90 183
200 199 199 201 199 198 207 197 200 206 221 208 212 208 213 220 214 216 203 217 194 254 189 190 192 235 107 166 286 301 180 154 162 166 184 155 170 119 106 112 99 121 107
201 198 202 200 202 198 196 192 199 207 206 209 209 210 208 206 210 206 218 202 207 226 278 190 199 244 257 175 181 220 312 350 252 160 189 188 205 198 146 186 132 129 147
198 200 200 200 200 202 195 212 193 214 209 206 215 210 212 196 218 213 208 206 210 224 193 225 183 219 191 266 211 183 211 216 240 293 205 179 206 221 179 216 187 182 186
198 199 198 197 199 200 199 203 207 202 222 208 206 210 217 218 199 213 207 208 210 221 221 208 202 204 232 229 235 227 221 214 201 231 245 253 251 174 215 213 214 229 225